This is the latest recevied weather packets stored in our database for station/object KW4UJ. If no packets are shown the sender has not sent any weather packets the latest 10 day(s).
| Time | Temp. | Humidity | Pressure | Rain* | Wind** | Luminosity | Snow |
|---|---|---|---|---|---|---|---|
| 1787854567 | 30.56° C | 68% | 1014.3 hPa | 0 mm | - | 275 W/m² | - |
| 1787854261 | 31.11° C | 67% | 1014.2 hPa | 0 mm | - | 596 W/m² | - |
| 1787853956 | 30.56° C | 66% | 1014.2 hPa | 0 mm | - | 329 W/m² | - |
| 1787853654 | 30.56° C | 69% | 1014.3 hPa | 0 mm | - | 643 W/m² | - |
| 1787853350 | 30.56° C | 69% | 1014.3 hPa | 0 mm | - | 519 W/m² | - |
| 1787853045 | 30° C | 70% | 1014.2 hPa | 0 mm | - | 212 W/m² | - |
| 1787852745 | 30.56° C | 69% | 1014.4 hPa | 0 mm | - | 675 W/m² | - |
| 1787852443 | 30.56° C | 69% | 1014.5 hPa | 0 mm | - | 555 W/m² | - |
| 1787852138 | 30° C | 70% | 1014.7 hPa | 0 mm | - | 607 W/m² | - |
| 1787851833 | 30° C | 71% | 1014.6 hPa | 0 mm | - | 435 W/m² | - |
| 1787851533 | 30° C | 72% | 1014.8 hPa | 0 mm | - | 608 W/m² | - |
| 1787851232 | 29.44° C | 74% | 1014.7 hPa | 0 mm | - | 573 W/m² | - |
| 1787850928 | 28.89° C | 73% | 1014.9 hPa | 0 mm | - | 344 W/m² | - |
| 1787850625 | 29.44° C | 75% | 1014.8 hPa | 0 mm | - | 393 W/m² | - |
| 1787850319 | 28.89° C | 75% | 1015 hPa | 0 mm | - | 401 W/m² | - |
| 1787850015 | 28.89° C | 74% | 1014.9 hPa | 0 mm | - | 386 W/m² | - |
| 1787849708 | 28.89° C | 74% | 1015 hPa | 0 mm | - | 394 W/m² | - |
| 1787849404 | 28.89° C | 75% | 1014.8 hPa | 0 mm | - | 388 W/m² | - |
| 1787849102 | 28.33° C | 75% | 1015 hPa | 0 mm | - | 559 W/m² | - |
| 1787848797 | 27.78° C | 78% | 1015.1 hPa | 0 mm | - | 558 W/m² | - |
| 1787848496 | 27.78° C | 78% | 1015.2 hPa | 0 mm | - | 342 W/m² | - |
| 1787848191 | 27.78° C | 78% | 1015.1 hPa | 0 mm | - | 225 W/m² | - |
| 1787847891 | 27.78° C | 78% | 1015.4 hPa | 0 mm | - | 290 W/m² | - |
| 1787847586 | 27.78° C | 78% | 1015.3 hPa | 0 mm | - | 229 W/m² | - |
| 1787847281 | 27.78° C | 78% | 1015.1 hPa | 0 mm | - | 227 W/m² | - |
* Rain latest hour (hover to see other rain measurements)
** Current wind speed in m/s (hover to see current wind gust speed)